GW2646 Weather Reports


time (UTC)temp
C
wind
direction
speed
KPH
gust
KPH
rain 1hr
cm
rain 24hr
cm
rain mn
cm
humidity
%
barometer
mb
20260504151048 14 0 0.0 3.2 0.00 0.00 0.00 80 1010.3
20260504150550 13 323 0.0 3.2 0.00 0.00 0.00 82 1010.4
20260504141047 11 0 0.0 0.0 0.00 0.00 0.00 92 1009.7
20260504140547 10 0 0.0 1.6 0.00 0.00 0.00 93 1009.8
20260504130547 10 0 0.0 0.0 0.00 0.00 0.00 92 1009.4
20260504110546 10 0 0.0 0.0 0.00 0.00 0.00 89 1009.4
20260504100545 11 0 0.0 0.0 0.00 0.00 0.00 87 1009.5
20260504081555 11 0 0.0 0.0 0.00 0.00 0.00 82 1009.3
20260504081047 11 0 0.0 0.0 0.00 0.00 0.00 82 1009.3
20260504080547 11 0 0.0 1.6 0.00 0.00 0.00 82 1009.3
20260504050548 16 0 0.0 0.0 0.00 0.00 0.00 64 1009.4
20260504045547 17 0 0.0 0.0 0.00 0.00 0.00 58 1009.5
20260504045048 17 0 0.0 0.0 0.00 0.00 0.00 58 1009.4
20260504044557 17 0 0.0 0.0 0.00 0.00 0.00 57 1009.5
20260504044048 17 0 0.0 1.6 0.00 0.00 0.00 56 1009.5
20260504043550 17 0 0.0 1.6 0.00 0.00 0.00 57 1009.5
20260504043057 18 0 0.0 0.0 0.00 0.00 0.00 56 1009.4
20260504042552 18 0 0.0 0.0 0.00 0.00 0.00 54 1009.4
20260504042048 18 0 0.0 1.6 0.00 0.00 0.00 52 1009.5
20260504041551 19 0 0.0 1.6 0.00 0.00 0.00 51 1009.4
20260504041048 19 0 0.0 1.6 0.00 0.00 0.00 50 1009.4
20260504040550 19 0 0.0 1.6 0.00 0.00 0.00 50 1009.4
20260504040055 20 0 0.0 1.6 0.00 0.00 0.00 49 1009.4
20260504035547 20 0 0.0 3.2 0.00 0.00 0.00 48 1009.3
20260504035048 20 0 0.0 3.2 0.00 0.00 0.00 47 1009.3
20260504034611 20 0 0.0 4.8 0.00 0.00 0.00 47 1009.2
20260504034047 20 0 0.0 4.8 0.00 0.00 0.00 46 1009.2
20260504033548 20 323 0.0 4.8 0.00 0.00 0.00 46 1009.2
20260504033051 21 0 0.0 1.6 0.00 0.00 0.00 45 1009.2
20260504032547 21 0 0.0 4.8 0.00 0.00 0.00 45 1009.1
20260504032050 21 0 0.0 4.8 0.00 0.00 0.00 45 1009.1
20260504031552 22 0 0.0 1.6 0.00 0.00 0.00 43 1009.0
20260504031048 22 0 0.0 1.6 0.00 0.00 0.00 42 1009.0
20260504030545 22 0 0.0 4.8 0.00 0.00 0.00 41 1009.0
20260504030051 22 0 0.0 6.4 0.00 0.00 0.00 39 1009.2
20260504025545 22 0 1.6 8.0 0.00 0.00 0.00 38 1009.3
20260504025045 22 311 0.0 9.7 0.00 0.00 0.00 38 1009.3
20260504024558 22 304 3.2 11.3 0.00 0.00 0.00 37 1009.3
20260504024046 23 295 3.2 11.3 0.00 0.00 0.00 37 1009.3
20260504023544 23 330 3.2 11.3 0.00 0.00 0.00 38 1009.3
20260504023057 23 304 1.6 11.3 0.00 0.00 0.00 38 1009.3
20260504022549 23 0 1.6 11.3 0.00 0.00 0.00 39 1009.3
20260504022045 23 292 3.2 11.3 0.00 0.00 0.00 39 1009.3
20260504021554 24 337 1.6 11.3 0.00 0.00 0.00 39 1009.3
20260504021047 24 325 1.6 11.3 0.00 0.00 0.00 40 1009.3
20260504020545 24 292 1.6 11.3 0.00 0.00 0.00 39 1009.3
20260504020048 24 266 1.6 14.5 0.00 0.00 0.00 38 1009.3
20260504015545 24 325 3.2 14.5 0.00 0.00 0.00 37 1009.3
20260504015045 25 327 3.2 14.5 0.00 0.00 0.00 37 1009.4
20260504014606 25 0 1.6 12.9 0.00 0.00 0.00 39 1009.4
20260504014046 25 225 0.0 12.9 0.00 0.00 0.00 38 1009.4
20260504013548 25 247 1.6 11.3 0.00 0.00 0.00 37 1009.4
20260504013054 25 292 3.2 12.9 0.00 0.00 0.00 39 1009.4
20260504012547 25 310 3.2 12.9 0.00 0.00 0.00 39 1009.4
20260504012047 26 255 3.2 11.3 0.00 0.00 0.00 39 1009.4
20260504011558 26 243 1.6 11.3 0.00 0.00 0.00 39 1009.5
20260504011043 25 321 0.0 12.9 0.00 0.00 0.00 40 1009.5
20260504010546 25 326 1.6 12.9 0.00 0.00 0.00 39 1009.5
20260504005545 26 337 1.6 9.7 0.00 0.00 0.00 40 1009.6
20260504005044 25 0 3.2 16.1 0.00 0.00 0.00 41 1009.8
20260504004555 25 325 4.8 16.1 0.00 0.00 0.00 40 1009.9
20260504004047 25 291 6.4 16.1 0.00 0.00 0.00 39 1010.0
20260504003545 25 302 3.2 12.9 0.00 0.00 0.00 42 1010.0
20260504003100 25 325 4.8 14.5 0.00 0.00 0.00 42 1010.0
20260504002543 26 327 4.8 14.5 0.00 0.00 0.00 40 1010.0
20260504002044 25 316 1.6 14.5 0.00 0.00 0.00 43 1010.1
20260504001604 25 209 4.8 14.5 0.00 0.00 0.00 44 1010.2
20260504001047 26 327 4.8 11.3 0.00 0.00 0.00 42 1010.2
20260504000546 26 360 1.6 12.9 0.00 0.00 0.00 43 1010.3
20260504000052 26 0 1.6 14.5 0.00 0.00 0.00 43 1010.2
20260503235547 25 322 3.2 14.5 0.00 0.00 0.00 42 1010.3
20260503235048 26 314 3.2 12.9 0.00 0.00 0.00 43 1010.3
20260503234556 26 315 1.6 9.7 0.00 0.00 0.00 43 1010.3
20260503234049 26 310 1.6 14.5 0.00 0.00 0.00 44 1010.3
20260503233547 26 213 1.6 14.5 0.00 0.00 0.00 45 1010.4
20260503233050 26 0 3.2 14.5 0.00 0.00 0.00 44 1010.5
20260503232550 26 273 3.2 14.5 0.00 0.00 0.00 45 1010.5
20260503232051 26 274 3.2 14.5 0.00 0.00 0.00 43 1010.5
20260503231555 26 352 3.2 14.5 0.00 0.00 0.00 44 1010.6
20260503231048 26 222 4.8 14.5 0.00 0.00 0.00 44 1010.7
20260503230549 26 304 1.6 14.5 0.00 0.00 0.00 45 1010.7
20260503230058 26 209 4.8 12.9 0.00 0.00 0.00 45 1010.8
20260503225547 26 302 4.8 11.3 0.00 0.00 0.00 45 1010.9
20260503225048 26 315 1.6 11.3 0.00 0.00 0.00 46 1011.0
20260503224554 26 326 3.2 12.9 0.00 0.00 0.00 45 1011.1
20260503224048 26 290 3.2 12.9 0.00 0.00 0.00 45 1011.1
20260503223548 26 275 3.2 8.0 0.00 0.00 0.00 45 1011.1
20260503223053 26 0 1.6 8.0 0.00 0.00 0.00 45 1011.3
20260503222546 25 252 3.2 9.7 0.00 0.00 0.00 46 1011.4
20260503222047 25 298 3.2 14.5 0.00 0.00 0.00 45 1011.4
20260503221555 25 275 3.2 14.5 0.00 0.00 0.00 47 1011.4
20260503221050 25 261 3.2 12.9 0.00 0.00 0.00 46 1011.4
20260503220548 25 288 3.2 12.9 0.00 0.00 0.00 48 1011.4
20260503220054 25 317 3.2 14.5 0.00 0.00 0.00 47 1011.5
20260503215548 25 327 3.2 14.5 0.00 0.00 0.00 49 1011.5
20260503215051 25 228 4.8 12.9 0.00 0.00 0.00 49 1011.6
20260503214548 25 228 1.6 12.9 0.00 0.00 0.00 49 1011.6
20260503214047 25 306 1.6 16.1 0.00 0.00 0.00 47 1011.7
20260503213547 25 326 6.4 16.1 0.00 0.00 0.00 49 1011.8
20260503213107 25 260 3.2 16.1 0.00 0.00 0.00 51 1011.7
20260503212547 25 318 4.8 16.1 0.00 0.00 0.00 51 1011.8
20260503212049 25 300 4.8 14.5 0.00 0.00 0.00 50 1011.7
20260503211550 25 221 3.2 16.1 0.00 0.00 0.00 50 1011.8
20260503211048 24 263 4.8 16.1 0.00 0.00 0.00 49 1011.9
20260503210548 24 315 4.8 16.1 0.00 0.00 0.00 50 1011.9
20260503205548 25 273 1.6 1.6 0.00 0.00 0.00 51 1012.0